• In Spain
  • List of Countries
  • For 7 days
  • Water Temperature
  • Satellite Maps
  • Weather Map
  • Weather Widgets
  • user-avatar
    Login

    Hourly Weather Benguela

    Today, 23 September, Saturday

    Time Temperature Precipitation Wind Pressure Humidity
    00:00 +25°C° 0 mm 2 mps 760 mmHg 84%
    01:00 +25°C° 0 mm 2 mps 760 mmHg 85%
    02:00 +25°C° 0 mm 2 mps 760 mmHg 86%
    03:00 +25°C° 0 mm 2 mps 759 mmHg 87%
    04:00 +24°C° 0 mm 1 mps 759 mmHg 88%
    05:00 +25°C° 0 mm 1 mps 759 mmHg 86%
    06:00 +25°C° 0 mm 1 mps 759 mmHg 83%
    07:00 +26°C° 0 mm 1 mps 760 mmHg 81%
    08:00 +28°C° 0 mm 1 mps 760 mmHg 70%
    09:00 +31°C° 0 mm 2 mps 759 mmHg 60%
    10:00 +34°C° 0 mm 2 mps 759 mmHg 49%
    11:00 +35°C° 0 mm 3 mps 759 mmHg 48%
    12:00 +35°C° 0 mm 4 mps 758 mmHg 46%
    13:00 +36°C° 0 mm 4 mps 758 mmHg 45%
    14:00 +35°C° 0 mm 4 mps 757 mmHg 48%
    15:00 +34°C° 0 mm 4 mps 757 mmHg 52%
    16:00 +33°C° 0 mm 4 mps 757 mmHg 55%
    17:00 +30°C° 0 mm 3 mps 758 mmHg 63%
    18:00 +28°C° 0 mm 2 mps 758 mmHg 71%
    19:00 +26°C° 0 mm 2 mps 759 mmHg 79%
    20:00 +26°C° 0 mm 1 mps 759 mmHg 80%
    21:00 +26°C° 0 mm 1 mps 760 mmHg 80%
    22:00 +26°C° 0 mm 1 mps 761 mmHg 81%
    23:00 +25°C° 0 mm 1 mps 761 mmHg 82%

    Tomorrow, 24 September, Sunday

    Time Temperature Precipitation Wind Pressure Humidity
    00:00 +25°C° 0 mm 1 mps 760 mmHg 82%
    01:00 +25°C° 0 mm 1 mps 760 mmHg 83%
    02:00 +25°C° 0 mm 1 mps 760 mmHg 84%
    03:00 +25°C° 0 mm 1 mps 760 mmHg 86%
    04:00 +24°C° 0 mm 1 mps 760 mmHg 87%
    05:00 +25°C° 0 mm 1 mps 760 mmHg 86%
    06:00 +25°C° 0 mm 1 mps 760 mmHg 85%
    07:00 +23°C° 0 mm 0 mps 761 mmHg 84%
    08:00 +28°C° 0 mm 1 mps 760 mmHg 72%
    09:00 +30°C° 0 mm 1 mps 760 mmHg 61%
    10:00 +34°C° 0 mm 2 mps 760 mmHg 50%
    11:00 +34°C° 0 mm 3 mps 760 mmHg 48%
    12:00 +35°C° 0 mm 3 mps 759 mmHg 46%
    13:00 +36°C° 0 mm 4 mps 758 mmHg 44%
    14:00 +35°C° 0 mm 4 mps 758 mmHg 48%
    15:00 +33°C° 0 mm 4 mps 757 mmHg 53%
    16:00 +32°C° 0 mm 4 mps 757 mmHg 57%
    17:00 +29°C° 0 mm 3 mps 758 mmHg 65%
    18:00 +28°C° 0 mm 3 mps 758 mmHg 73%
    19:00 +26°C° 0 mm 2 mps 759 mmHg 81%
    20:00 +26°C° 0 mm 2 mps 760 mmHg 81%
    21:00 +26°C° 0 mm 1 mps 760 mmHg 81%
    22:00 +26°C° 0 mm 1 mps 761 mmHg 81%
    23:00 +25°C° 0 mm 1 mps 761 mmHg 82%

    Day after tomorrow, 25 September, Monday

    Time Temperature Precipitation Wind Pressure Humidity
    00:00 +25°C° 0 mm 1 mps 760 mmHg 82%
    01:00 +25°C° 0 mm 1 mps 760 mmHg 83%
    02:00 +25°C° 0 mm 1 mps 760 mmHg 85%
    03:00 +24°C° 0 mm 1 mps 759 mmHg 88%
    04:00 +24°C° 0 mm 1 mps 759 mmHg 90%
    05:00 +24°C° 0 mm 1 mps 760 mmHg 88%
    06:00 +25°C° 0 mm 1 mps 760 mmHg 86%
    07:00 +25°C° 0 mm 1 mps 760 mmHg 83%
    08:00 +27°C° 0 mm 1 mps 760 mmHg 72%
    09:00 +30°C° 0 mm 2 mps 760 mmHg 60%
    10:00 +32°C° 0 mm 2 mps 760 mmHg 49%
    11:00 +34°C° 0 mm 3 mps 759 mmHg 47%
    12:00 +35°C° 0 mm 3 mps 758 mmHg 45%
    13:00 +35°C° 0 mm 4 mps 758 mmHg 43%
    14:00 +34°C° 0 mm 4 mps 757 mmHg 46%
    15:00 +33°C° 0 mm 4 mps 757 mmHg 50%
    16:00 +32°C° 0 mm 4 mps 756 mmHg 53%
    17:00 +30°C° 0 mm 4 mps 757 mmHg 60%
    18:00 +28°C° 0 mm 3 mps 758 mmHg 68%
    19:00 +26°C° 0 mm 3 mps 759 mmHg 76%
    20:00 +26°C° 0 mm 2 mps 759 mmHg 78%
    21:00 +25°C° 0 mm 2 mps 759 mmHg 81%
    22:00 +25°C° 0 mm 2 mps 760 mmHg 83%
    23:00 +25°C° 0 mm 2 mps 760 mmHg 84%

    26 September, Tuesday

    Time Temperature Precipitation Wind Pressure Humidity
    00:00 +24°C° 0 mm 2 mps 759 mmHg 85%
    01:00 +24°C° 0 mm 2 mps 759 mmHg 86%
    02:00 +24°C° 0 mm 2 mps 759 mmHg 86%
    03:00 +24°C° 0 mm 2 mps 759 mmHg 86%
    04:00 +24°C° 0 mm 2 mps 758 mmHg 86%
    05:00 +24°C° 0 mm 1 mps 759 mmHg 84%
    06:00 +24°C° 0 mm 1 mps 759 mmHg 83%
    07:00 +25°C° 0 mm 1 mps 760 mmHg 81%
    08:00 +27°C° 0 mm 1 mps 759 mmHg 70%
    09:00 +29°C° 0 mm 2 mps 759 mmHg 60%
    10:00 +32°C° 0 mm 2 mps 759 mmHg 49%
    11:00 +33°C° 0 mm 3 mps 758 mmHg 48%
    12:00 +34°C° 0 mm 4 mps 758 mmHg 47%
    13:00 +34°C° 0 mm 4 mps 757 mmHg 46%
    14:00 +33°C° 0 mm 4 mps 756 mmHg 50%
    15:00 +32°C° 0 mm 4 mps 756 mmHg 53%
    16:00 +30°C° 0 mm 4 mps 756 mmHg 57%
    17:00 +29°C° 0 mm 4 mps 757 mmHg 64%
    18:00 +27°C° 0 mm 3 mps 757 mmHg 71%
    19:00 +25°C° 0 mm 3 mps 758 mmHg 79%
    20:00 +25°C° 0 mm 2 mps 759 mmHg 80%
    21:00 +25°C° 0 mm 2 mps 759 mmHg 81%
    22:00 +25°C° 0 mm 2 mps 759 mmHg 82%
    23:00 +25°C° 0 mm 1 mps 759 mmHg 83%

    27 September, Wednesday

    Time Temperature Precipitation Wind Pressure Humidity
    00:00 +24°C° 0 mm 1 mps 759 mmHg 84%
    01:00 +24°C° 0 mm 1 mps 759 mmHg 86%
    02:00 +24°C° 0 mm 1 mps 759 mmHg 87%
    03:00 +24°C° 0 mm 1 mps 758 mmHg 88%
    04:00 +23°C° 0 mm 1 mps 758 mmHg 90%
    05:00 +24°C° 0 mm 1 mps 759 mmHg 88%
    06:00 +22°C° 0 mm 0 mps 759 mmHg 85%
    07:00 +22°C° 0 mm 0 mps 759 mmHg 83%
    08:00 +27°C° 0 mm 1 mps 759 mmHg 71%
    09:00 +29°C° 0 mm 2 mps 759 mmHg 60%
    10:00 +32°C° 0 mm 2 mps 759 mmHg 48%
    11:00 +34°C° 0 mm 3 mps 758 mmHg 46%
    12:00 +34°C° 0 mm 4 mps 758 mmHg 44%
    13:00 +35°C° 0 mm 4 mps 757 mmHg 42%
    14:00 +34°C° 0 mm 4 mps 757 mmHg 46%
    15:00 +33°C° 0 mm 4 mps 756 mmHg 51%
    16:00 +32°C° 0 mm 4 mps 756 mmHg 55%
    17:00 +29°C° 0 mm 3 mps 757 mmHg 62%
    18:00 +28°C° 0 mm 3 mps 758 mmHg 70%
    19:00 +26°C° 0 mm 2 mps 759 mmHg 77%
    20:00 +26°C° 0 mm 2 mps 759 mmHg 79%
    21:00 +25°C° 0 mm 2 mps 759 mmHg 80%
    22:00 +25°C° 0 mm 1 mps 760 mmHg 81%
    23:00 +25°C° 0 mm 1 mps 759 mmHg 83%

    28 September, Thursday

    Time Temperature Precipitation Wind Pressure Humidity
    00:00 +25°C° 0 mm 1 mps 759 mmHg 84%
    01:00 +24°C° 0 mm 1 mps 759 mmHg 86%
    02:00 +24°C° 0 mm 1 mps 759 mmHg 86%
    03:00 +24°C° 0 mm 1 mps 759 mmHg 87%
    04:00 +24°C° 0 mm 1 mps 759 mmHg 87%
    05:00 +24°C° 0 mm 1 mps 759 mmHg 83%
    06:00 +25°C° 0 mm 1 mps 760 mmHg 80%
    07:00 +26°C° 0 mm 1 mps 760 mmHg 76%
    08:00 +28°C° 0 mm 2 mps 760 mmHg 65%
    09:00 +31°C° 0 mm 2 mps 760 mmHg 55%
    10:00 +34°C° 0 mm 2 mps 759 mmHg 45%
    11:00 +35°C° 0 mm 3 mps 759 mmHg 44%
    12:00 +35°C° 0 mm 3 mps 758 mmHg 43%
    13:00 +36°C° 0 mm 4 mps 757 mmHg 42%
    14:00 +35°C° 0 mm 4 mps 757 mmHg 45%
    15:00 +34°C° 0 mm 4 mps 757 mmHg 49%
    16:00 +33°C° 0 mm 4 mps 757 mmHg 52%
    17:00 +30°C° 0 mm 4 mps 757 mmHg 59%
    18:00 +28°C° 0 mm 3 mps 758 mmHg 66%
    19:00 +27°C° 0 mm 3 mps 759 mmHg 73%
    20:00 +27°C° 0 mm 3 mps 759 mmHg 74%
    21:00 +26°C° 0 mm 2 mps 759 mmHg 74%
    22:00 +26°C° 0 mm 2 mps 760 mmHg 75%
    23:00 +26°C° 0 mm 2 mps 759 mmHg 75%
    Show more